EW2270 Weather Reports


Display with metric or nautical units.
time (UTC)temp
F
wind
direction
speed
MPH
gust
MPH
rain 1hr
in
rain 24hr
in
rain mn
in
humidity
%
barometer
mb
20260506194604 78 224 9.0 15.0 0.00 0.00 0.00 37 1012.1
20260506193110 77 166 8.0 16.0 0.00 0.00 0.00 40 1012.4
20260506191556 76 176 4.0 12.0 0.00 0.00 0.00 44 1012.7
20260506190055 75 155 7.0 11.0 0.00 0.00 0.00 42 1012.9
20260506184552 75 205 3.0 6.0 0.00 0.00 0.00 44 1013.0
20260506183058 74 230 6.0 10.0 0.00 0.00 0.00 42 1013.4
20260506181600 73 303 3.0 7.0 0.00 0.00 0.00 46 1013.6
20260506180045 72 243 0.0 4.0 0.00 0.00 0.00 47 1013.9
20260506174543 71 253 3.0 7.0 0.00 0.00 0.00 48 1013.9
20260506173052 69 238 0.0 5.0 0.00 0.00 0.00 52 1014.0
20260506171536 68 27 3.0 6.0 0.00 0.00 0.00 54 1014.0
20260506170035 67 278 2.0 9.0 0.00 0.00 0.00 56 1014.0
20260506164533 67 338 1.0 4.0 0.00 0.00 0.00 57 1013.9
20260506163029 65 292 1.0 6.0 0.00 0.00 0.00 59 1014.0
20260506161526 65 14 3.0 6.0 0.00 0.00 0.00 58 1014.1
20260506160035 64 304 2.0 4.0 0.00 0.00 0.00 59 1014.1
20260506154524 63 317 3.0 5.0 0.00 0.00 0.00 60 1014.3
20260506153020 63 2 2.0 5.0 0.00 0.00 0.00 62 1014.2
20260506151519 63 342 2.0 3.0 0.00 0.00 0.00 59 1014.3
20260506150015 61 8 2.0 3.0 0.00 0.00 0.00 67 1014.2
20260506144510 59 4 0.0 3.0 0.00 0.00 0.00 72 1014.1
20260506143008 58 103 1.0 2.0 0.00 0.00 0.00 72 1014.0
20260506141503 57 103 1.0 2.0 0.00 0.00 0.00 73 1013.8
20260506140100 56 103 0.0 0.0 0.00 0.00 0.00 78 1013.7
20260506134559 53 103 0.0 0.0 0.00 0.00 0.00 82 1013.6
20260506133106 52 103 0.0 4.0 0.00 0.00 0.00 81 1013.4
20260506131602 50 103 2.0 4.0 0.00 0.00 0.00 84 1013.4
20260506130056 49 142 0.0 0.0 0.00 0.00 0.00 86 1013.3
20260506124557 47 142 0.0 0.0 0.00 0.00 0.00 88 1013.1
20260506123049 48 142 0.0 0.0 0.00 0.00 0.00 85 1012.9
20260506121546 48 142 0.0 1.0 0.00 0.00 0.00 87 1012.7
20260506120043 49 142 0.0 2.0 0.00 0.00 0.00 82 1012.4
20260506114540 50 142 2.0 3.0 0.00 0.00 0.00 82 1012.2
20260506113039 51 166 1.0 2.0 0.00 0.00 0.00 83 1012.2
20260506111537 51 166 2.0 2.0 0.00 0.00 0.00 84 1012.0
20260506110036 50 166 0.0 1.0 0.00 0.00 0.00 85 1012.1
20260506104534 50 166 1.0 4.0 0.00 0.00 0.00 85 1011.9
20260506103038 50 186 3.0 4.0 0.00 0.00 0.00 85 1011.9
20260506101529 50 186 1.0 2.0 0.00 0.00 0.00 84 1011.7
20260506100034 52 269 0.0 2.0 0.00 0.00 0.00 82 1011.7
20260506094531 54 148 0.0 3.0 0.00 0.00 0.00 77 1011.5
20260506093026 56 102 1.0 3.0 0.00 0.00 0.00 76 1011.4
20260506091520 54 98 4.0 5.0 0.00 0.00 0.00 81 1011.4
20260506090019 53 98 5.0 8.0 0.00 0.00 0.00 82 1011.4
20260506084522 52 87 2.0 5.0 0.00 0.00 0.00 85 1011.4
20260506083017 52 328 3.0 8.0 0.00 0.00 0.00 85 1011.4
20260506081514 52 290 5.0 6.0 0.00 0.00 0.00 81 1011.3
20260506073009 53 182 4.0 6.0 0.00 0.00 0.00 82 1010.9
20260506071510 53 110 0.0 3.0 0.00 0.00 0.00 83 1010.8
20260506061601 56 277 1.0 3.0 0.00 0.00 0.00 76 1010.6
20260506060123 57 277 1.0 2.0 0.00 0.00 0.00 76 1010.4
20260506044607 61 200 5.0 8.0 0.00 0.00 0.00 67 1010.0
20260506043052 60 216 5.0 6.0 0.00 0.00 0.00 72 1009.9
20260506041555 60 110 1.0 4.0 0.00 0.00 0.00 70 1009.7
20260506040051 61 107 4.0 6.0 0.00 0.00 0.00 69 1009.4
20260506034551 60 112 4.0 6.0 0.00 0.00 0.00 73 1009.3
20260506033050 62 140 0.0 3.0 0.00 0.00 0.00 71 1009.3
20260506031552 67 113 0.0 2.0 0.00 0.00 0.00 62 1009.1
20260506030049 72 96 2.0 4.0 0.00 0.00 0.00 50 1009.1
20260506024557 74 84 2.0 4.0 0.00 0.00 0.00 46 1009.0
20260506023047 75 70 2.0 4.0 0.00 0.00 0.00 43 1008.9
20260506021547 75 65 2.0 4.0 0.00 0.00 0.00 43 1008.9
20260506020047 76 61 3.0 6.0 0.00 0.00 0.00 41 1008.8
20260506014547 76 65 4.0 7.0 0.00 0.00 0.00 41 1008.8
20260506013046 76 52 4.0 8.0 0.00 0.00 0.00 39 1008.7
20260506011545 77 43 7.0 11.0 0.00 0.00 0.00 37 1008.7
20260506010046 77 54 5.0 10.0 0.00 0.00 0.00 34 1008.5
20260506004544 78 37 4.0 9.0 0.00 0.00 0.00 36 1008.6
20260506003042 77 82 4.0 11.0 0.00 0.00 0.00 37 1008.6
20260506001542 77 34 9.0 13.0 0.00 0.00 0.00 34 1008.6
20260506000041 78 352 8.0 14.0 0.00 0.00 0.00 34 1008.8
20260505234547 78 10 9.0 16.0 0.00 0.00 0.00 34 1008.9
20260505233038 78 330 7.0 13.0 0.00 0.00 0.00 35 1008.9
20260505231549 78 18 5.0 11.0 0.00 0.00 0.00 36 1008.9
20260505230050 78 20 5.0 11.0 0.00 0.00 0.00 36 1009.0
20260505224536 78 344 5.0 9.0 0.00 0.00 0.00 35 1009.1
20260505223032 77 8 2.0 10.0 0.00 0.00 0.00 36 1009.1
20260505221531 77 304 7.0 12.0 0.00 0.00 0.00 36 1009.2
20260505220032 77 311 6.0 11.0 0.00 0.00 0.00 36 1009.4
20260505214528 77 1 3.0 10.0 0.00 0.00 0.00 36 1009.5
20260505213025 77 331 5.0 12.0 0.00 0.00 0.00 39 1009.6
20260505211525 76 307 6.0 9.0 0.00 0.00 0.00 38 1009.7
20260505210024 76 313 5.0 8.0 0.00 0.00 0.00 39 1009.7
20260505204521 75 340 4.0 10.0 0.00 0.00 0.00 40 1009.8
20260505203021 75 323 5.0 11.0 0.00 0.00 0.00 43 1009.9
20260505201517 74 45 0.0 8.0 0.00 0.00 0.00 45 1010.0
20260505200018 74 284 5.0 9.0 0.00 0.00 0.00 45 1010.0